Stations météo

réclame
Mon MeteoGroup
Kvarn, Suède (2561): Température de l'air & dewpoint: 17.07.2018 07:00:00 - 23.07.2018 07:00:00 (CEST)Kvarn, Suède (2561): Vitesse du vent & gusts: 17.07.2018 07:00:00 - 23.07.2018 07:00:00 (CEST)Kvarn, Suède (2561): Direction du vent: 17.07.2018 07:00:00 - 23.07.2018 07:00:00 (CEST)Kvarn, Suède (2561): reduced air pressure: 17.07.2018 07:00:00 - 23.07.2018 07:00:00 (CEST)Kvarn, Suède (2561): visibility: 17.07.2018 07:00:00 - 23.07.2018 07:00:00 (CEST)Kvarn, Suède (2561): Quantités de précipitations: 17.07.2018 07:00:00 - 23.07.2018 07:00:00 (CEST)
Date & Time tt [°C] td [°C] ff [km/h] ff [knt] fx [km/h] fx [knt] dd ppp [hPa] vv [km] rr [mm]
23.07.2018 07:00:00 16,0 15,2 0 0 4 2 N 1011,0 40 0,0
23.07.2018 06:00:00 12,4 11,9 0 0 4 2 N 1010,9 45 0,0
23.07.2018 05:00:00 11,1 10,9 0 0 4 2 N 1011,0 40 0,0
23.07.2018 04:00:00 10,6 10,4 0 0 0 0 N 1010,9 35 0,0
23.07.2018 03:00:00 11,2 10,9 0 0 4 2 N 1010,9 45 0,0
23.07.2018 02:00:00 12,1 11,6 0 0 4 2 N 1010,8 40 0,0
23.07.2018 01:00:00 13,5 12,2 0 0 4 2 N 1010,8 45 0,0
23.07.2018 00:00:00 13,8 12,4 0 0 0 0 N 1010,9 45 0,0
22.07.2018 23:00:00 14,5 12,2 0 0 7 4 N 1010,6 50 0,0
22.07.2018 22:00:00 16,2 12,6 0 0 7 4 N 1010,3 45 0,0
22.07.2018 21:00:00 18,9 12,4 0 0 22 12 N 1009,8 45 0,0
22.07.2018 20:00:00 21,3 12,4 7 4 22 12 WSW 1009,2 45 0,0
22.07.2018 19:00:00 22,1 12,1 11 6 25 14 WSW 1009,1 45 0,0
22.07.2018 18:00:00 22,8 12,1 11 6 32 18 W 1009,2 45 0,0
22.07.2018 17:00:00 23,2 12,2 14 8 32 18 W 1009,1 45 0,0
22.07.2018 16:00:00 23,9 12,5 11 6 25 14 W 1008,6 45 0,0
22.07.2018 15:00:00 24,6 12,5 14 8 25 14 WSW 1008,7 40 0,0
22.07.2018 14:00:00 23,5 12,5 11 6 29 16 SW 1008,8 45 0,0
22.07.2018 13:00:00 22,8 12,7 11 6 25 14 WSW 1008,9 35 0,0
22.07.2018 12:00:00 22,2 13,0 11 6 29 16 WSW 1009,0 45 0,0
22.07.2018 11:00:00 21,1 12,8 14 8 22 12 SW 1008,9 35 0,0
22.07.2018 10:00:00 19,7 13,9 7 4 22 12 W 1008,7 40 0,0
22.07.2018 09:00:00 18,8 14,1 11 6 22 12 W 1008,9 40 0,0
22.07.2018 08:00:00 18,3 14,2 7 4 22 12 WSW 1008,5 40 0,0
22.07.2018 07:00:00 17,5 14,4 7 4 18 10 SW 1008,6 45 0,0
22.07.2018 06:00:00 15,3 13,3 4 2 14 8 SW 1008,9 45 0,0
22.07.2018 05:00:00 14,9 13,3 4 2 11 6 SW 1009,0 45 0,0
22.07.2018 04:00:00 15,1 13,1 4 2 11 6 WSW 1009,0 45 0,0
22.07.2018 03:00:00 14,4 13,4 4 2 7 4 SSW 1008,8 45 0,0
22.07.2018 02:00:00 14,2 12,8 4 2 14 8 S - 45 0,0
22.07.2018 01:00:00 16,2 13,1 4 2 14 8 WSW 1008,6 45 0,0
22.07.2018 00:00:00 16,6 12,7 4 2 14 8 SW 1009,0 45 0,0
21.07.2018 23:00:00 18,4 12,4 7 4 18 10 W 1008,8 45 0,0
21.07.2018 22:00:00 19,5 10,2 4 2 14 8 W 1008,3 50 0,0
21.07.2018 21:00:00 21,6 9,5 4 2 18 10 W 1007,6 45 0,0
21.07.2018 20:00:00 24,2 10,1 7 4 22 12 W 1007,2 45 0,0
21.07.2018 19:00:00 25,2 10,3 11 6 25 14 SW 1007,1 40 0,0
21.07.2018 18:00:00 26,1 11,1 7 4 22 12 SW 1007,4 45 0,0
21.07.2018 17:00:00 26,0 11,7 11 6 25 14 WSW 1007,4 35 0,0
21.07.2018 16:00:00 26,0 12,1 11 6 29 16 SW 1007,7 35 0,0
21.07.2018 15:00:00 26,0 11,4 11 6 29 16 WSW 1008,0 35 0,0
21.07.2018 14:00:00 26,0 11,7 7 4 22 12 W 1008,1 29 0,0
21.07.2018 13:00:00 25,0 10,8 11 6 25 14 WSW 1008,4 40 0,0
21.07.2018 12:00:00 24,0 13,2 11 6 22 12 W 1008,5 35 0,0
21.07.2018 11:00:00 22,6 13,4 11 6 22 12 WSW 1008,9 35 0,0
21.07.2018 10:00:00 21,4 14,5 7 4 22 12 WSW 1009,0 40 0,0
21.07.2018 09:00:00 20,7 15,9 7 4 14 8 W 1008,8 35 0,0
21.07.2018 08:00:00 19,4 16,6 7 4 14 8 WNW 1009,1 40 0,0
21.07.2018 07:00:00 16,8 16,2 4 2 11 6 WSW 1009,2 30 0,0
21.07.2018 06:00:00 16,2 15,4 4 2 11 6 W 1009,3 35 0,0
21.07.2018 05:00:00 15,8 15,3 4 2 7 4 WSW 1009,4 30 0,0
21.07.2018 04:00:00 15,5 14,9 4 2 7 4 WSW 1009,3 30 0,0
21.07.2018 03:00:00 14,9 13,9 0 0 7 4 N 1009,2 40 0,0
21.07.2018 02:00:00 16,5 14,1 0 0 7 4 N 1009,2 45 0,0
21.07.2018 01:00:00 17,3 15,5 0 0 7 4 N 1009,2 45 0,0
21.07.2018 00:00:00 17,9 16,8 4 2 7 4 WSW 1009,0 35 0,0
20.07.2018 23:00:00 18,5 17,5 0 0 11 6 N 1009,0 40 0,0
20.07.2018 22:00:00 20,4 19,6 4 2 4 2 WNW 1008,8 40 0,0
20.07.2018 21:00:00 22,8 20,7 0 0 7 4 N 1008,7 35 0,0
20.07.2018 20:00:00 25,5 21,2 0 0 4 2 N 1008,7 35 0,0
20.07.2018 19:00:00 23,1 21,5 0 0 0 0 N 1008,8 35 0,0
20.07.2018 18:00:00 23,5 20,8 0 0 7 4 N 1009,1 45 0,0
20.07.2018 17:00:00 22,3 17,9 4 2 32 18 W 1009,0 35 1,0
20.07.2018 16:00:00 24,1 15,8 14 8 - - N 1009,4 13 0,0
20.07.2018 15:00:00 - - - - - - - - - 0,0
20.07.2018 14:00:00 - - - - - - - - - -
20.07.2018 13:00:00 - - - - - - - - - 0,0
20.07.2018 12:00:00 - - - - - - - - - 0,0
20.07.2018 11:00:00 - - - - - - - - - 0,0
20.07.2018 10:00:00 - - - - - - - - - 0,0
20.07.2018 09:00:00 - - - - - - - - - 0,0
20.07.2018 08:00:00 - - - - - - - - - -
20.07.2018 07:00:00 - - - - - - - - - 0,0
20.07.2018 06:00:00 - - - - - - - - - 0,0
20.07.2018 05:00:00 - - - - - - - - - 0,0
20.07.2018 04:00:00 - - - - - - - - - 0,0
20.07.2018 03:00:00 - - - - - - - - - 0,0
20.07.2018 02:00:00 - - - - - - - - - -
20.07.2018 01:00:00 - - - - - - - - - 0,0
20.07.2018 00:00:00 - - - - - - - - - 0,0
19.07.2018 23:00:00 - - - - - - - - - 0,0
19.07.2018 22:00:00 - - - - - - - - - 0,0
19.07.2018 21:00:00 - - - - - - - - - 0,0
19.07.2018 20:00:00 - - - - - - - - - -
19.07.2018 19:00:00 - - - - - - - - - 0,0
19.07.2018 18:00:00 26,2 15,6 7 4 25 14 SSE 1012,0 45 0,0
19.07.2018 17:00:00 29,7 14,3 7 4 22 12 NNW 1011,9 40 0,0
19.07.2018 16:00:00 29,7 14,7 4 2 22 12 N 1012,3 30 0,0
19.07.2018 15:00:00 27,5 16,1 7 4 22 12 NW 1013,0 35 0,0
19.07.2018 14:00:00 27,2 17,7 7 4 18 10 NW 1013,2 40 0,0
19.07.2018 13:00:00 26,7 16,0 7 4 18 10 NNW 1013,4 40 0,0
19.07.2018 12:00:00 25,6 17,8 7 4 14 8 NW 1013,6 35 0,0
19.07.2018 11:00:00 23,9 17,6 7 4 14 8 WNW 1013,9 35 0,0
19.07.2018 10:00:00 24,0 16,8 7 4 11 6 NNW 1014,0 35 0,0
19.07.2018 09:00:00 21,9 18,1 7 4 11 6 WNW 1013,9 35 0,0
19.07.2018 08:00:00 20,4 19,1 4 2 7 4 NNW 1014,1 30 0,0
19.07.2018 07:00:00 18,3 18,3 0 0 7 4 N 1014,1 21 0,0
19.07.2018 06:00:00 16,6 16,6 4 2 7 4 WNW 1014,0 9 0,0
19.07.2018 05:00:00 16,0 16,0 0 0 7 4 N 1013,9 6 0,0
19.07.2018 04:00:00 15,9 15,9 0 0 7 4 N 1014,0 5 0,0
19.07.2018 03:00:00 15,9 15,9 0 0 4 2 N 1014,1 2,6 0,0
19.07.2018 02:00:00 16,0 16,0 0 0 4 2 N 1014,3 5 0,0
19.07.2018 01:00:00 16,2 16,2 0 0 7 4 N 1014,5 4,2 0,0
19.07.2018 00:00:00 16,6 16,6 4 2 4 2 W 1014,4 1,8 0,0
18.07.2018 23:00:00 17,3 17,3 0 0 4 2 N 1014,3 2,7 0,0
18.07.2018 22:00:00 18,2 18,0 0 0 4 2 N 1014,4 14 0,0
18.07.2018 21:00:00 19,2 18,5 0 0 7 4 N 1014,5 26 0,0
18.07.2018 20:00:00 20,0 18,7 4 2 14 8 W 1014,1 30 0,0
18.07.2018 19:00:00 20,7 19,4 7 4 14 8 WNW 1013,7 30 0,0
18.07.2018 18:00:00 20,9 19,9 4 2 22 12 NNW 1013,6 29 0,0
18.07.2018 17:00:00 21,6 19,5 11 6 22 12 WNW 1013,2 35 0,0
18.07.2018 16:00:00 22,6 21,5 4 2 14 8 NW 1012,5 22 0,0
18.07.2018 15:00:00 20,0 20,0 4 2 22 12 N 1012,3 6 6,0
18.07.2018 14:00:00 27,3 15,0 7 4 22 12 NE 1012,2 40 0,0
18.07.2018 13:00:00 29,9 14,8 7 4 18 10 ESE 1011,8 35 0,0
18.07.2018 12:00:00 29,1 16,3 7 4 18 10 E 1012,1 35 0,0
18.07.2018 11:00:00 27,1 16,7 4 2 14 8 ENE 1012,5 30 0,0
18.07.2018 10:00:00 27,0 17,2 4 2 14 8 ENE 1012,6 30 0,0
18.07.2018 09:00:00 24,5 16,5 4 2 11 6 NE 1013,0 35 0,0
18.07.2018 08:00:00 23,5 16,0 4 2 7 4 NNE 1013,1 40 0,0
18.07.2018 07:00:00 18,4 16,4 0 0 4 2 N 1013,0 40 0,0
18.07.2018 06:00:00 13,5 12,9 0 0 0 0 N 1013,3 29 0,0
18.07.2018 05:00:00 12,2 11,9 0 0 0 0 N 1013,2 30 0,0
18.07.2018 04:00:00 12,4 11,9 0 0 0 0 N 1013,4 30 0,0
18.07.2018 03:00:00 12,7 11,9 0 0 0 0 N 1013,8 40 0,0
18.07.2018 02:00:00 13,4 12,1 0 0 0 0 N 1014,1 40 0,0
18.07.2018 01:00:00 14,4 12,4 0 0 0 0 N 1014,2 45 0,0
18.07.2018 00:00:00 15,0 13,0 0 0 0 0 N 1014,0 40 0,0
17.07.2018 23:00:00 17,3 13,0 0 0 4 2 N 1013,9 45 0,0
17.07.2018 22:00:00 21,0 12,7 0 0 7 4 N 1014,1 45 0,0
17.07.2018 21:00:00 24,0 12,3 0 0 14 8 N 1013,7 45 0,0
17.07.2018 20:00:00 27,5 11,5 7 4 18 10 E 1013,1 45 0,0
17.07.2018 19:00:00 28,3 13,0 7 4 22 12 E 1012,8 40 0,0
17.07.2018 18:00:00 29,3 12,7 7 4 25 14 E 1012,8 40 0,0
17.07.2018 17:00:00 29,2 13,4 11 6 25 14 E 1012,8 35 0,0
17.07.2018 16:00:00 30,5 13,7 14 8 25 14 ESE 1012,8 35 0,0
17.07.2018 15:00:00 31,4 14,5 7 4 22 12 SE 1012,9 35 0,0
17.07.2018 14:00:00 28,5 14,7 7 4 25 14 ENE 1013,5 45 0,0
17.07.2018 13:00:00 30,5 15,0 11 6 29 16 ESE 1013,3 35 0,0
17.07.2018 12:00:00 30,6 14,2 11 6 22 12 E 1013,6 30 0,0
17.07.2018 11:00:00 29,0 13,2 7 4 22 12 ENE 1013,9 35 0,0
17.07.2018 10:00:00 27,8 13,0 7 4 14 8 NNE 1014,1 35 0,0
17.07.2018 09:00:00 26,0 14,5 4 2 14 8 NE 1014,6 40 0,0
17.07.2018 08:00:00 23,1 15,7 0 0 7 4 N 1014,9 35 0,0
17.07.2018 07:00:00 17,1 14,4 0 0 0 0 N 1015,1 40 0,0

tt = Température de l'air
td = dewpoint
ff = Vitesse du vent
fx = gusts
dd = Direction du vent
ppp = reduced air pressure
vv = visibility
rr = Quantités de précipitations

stations d'obs. à proximité